Location: ?
(35.3544°N, 139.4507°E)
Time: 06:47:43
(UTC+00:00)

SEDSat Delta rocket - Pass Details

Date: 03 August 2024
Orbit: 530 x 978 km, 31.4° (Epoch: 10 September)

Event Time Altitude Azimuth Distance (km) Brightness Sun altitude
Exits shadow 18:19:00 29° 218° (SW) 1,446 4.4 -17.5°
Maximum altitude 18:21:21 44° 168° (SSE) 1,069 4.0 -17.1°
Drops below altitude 10° 18:26:14 10° 97° (E) 2,177 6.5 -16.3°
Sets 18:28:34 0° 90° (E) 3,023 7.5 -16.0°
